EW3456 Weather Reports


Display with metric or nautical units.
time (UTC)temp
F
wind
direction
speed
MPH
gust
MPH
rain 1hr
in
rain 24hr
in
rain mn
in
humidity
%
barometer
mb
20260505172601 76 260 0.0 2.0 0.00 0.00 0.00 43 1015.8
20260505171602 77 263 1.0 2.0 0.00 0.00 0.00 41 1015.7
20260505170602 76 186 0.0 2.0 0.00 0.00 0.00 40 1015.5
20260505165602 76 165 0.0 2.0 0.00 0.00 0.00 42 1015.6
20260505164602 75 290 0.0 3.0 0.00 0.00 0.00 41 1015.8
20260505162602 75 206 0.0 4.0 0.00 0.00 0.00 43 1016.1
20260505161601 75 249 0.0 4.0 0.00 0.00 0.00 49 1016.5
20260505152601 72 298 0.0 2.0 0.00 0.00 0.00 59 1016.8
20260505151601 72 38 0.0 2.0 0.00 0.00 0.00 62 1016.8
20260505150601 71 64 0.0 1.0 0.00 0.00 0.00 63 1016.8
20260505140602 66 295 0.0 1.0 0.00 0.00 0.00 76 1016.5
20260505124601 55 86 0.0 0.0 0.00 0.00 0.00 92 1016.4
20260505123601 55 86 0.0 0.0 0.00 0.00 0.00 92 1016.3
20260505122602 54 86 0.0 0.0 0.00 0.00 0.00 92 1016.4
20260505121601 54 86 0.0 0.0 0.00 0.00 0.00 92 1016.2
20260505120602 53 86 0.0 0.0 0.00 0.00 0.00 92 1016.1
20260505115602 53 86 0.0 0.0 0.00 0.00 0.00 91 1015.9
20260505114601 53 86 0.0 0.0 0.00 0.00 0.00 91 1015.8
20260505113601 52 86 0.0 1.0 0.00 0.00 0.00 91 1015.9
20260505112602 52 86 0.0 0.0 0.00 0.00 0.00 91 1015.9
20260505111601 52 86 0.0 0.0 0.00 0.00 0.00 90 1015.7
20260505110601 52 86 0.0 0.0 0.00 0.00 0.00 90 1015.5
20260505101602 53 86 0.0 0.0 0.00 0.00 0.00 89 1015.5
20260505100602 53 86 0.0 0.0 0.00 0.00 0.00 89 1015.5
20260505095602 53 88 0.0 0.0 0.00 0.00 0.00 89 1015.4
20260505093601 53 88 0.0 0.0 0.00 0.00 0.00 88 1015.4
20260505092601 53 88 0.0 0.0 0.00 0.00 0.00 88 1015.3
20260505091601 53 88 0.0 0.0 0.00 0.00 0.00 88 1015.2
20260505085602 53 88 0.0 0.0 0.00 0.00 0.00 87 1015.2
20260505084602 53 88 0.0 0.0 0.00 0.00 0.00 87 1015.0
20260505083601 53 88 0.0 0.0 0.00 0.00 0.00 87 1014.8
20260505082602 54 88 0.0 0.0 0.00 0.00 0.00 87 1014.8
20260505081601 54 88 0.0 0.0 0.00 0.00 0.00 87 1014.9
20260505080601 54 88 0.0 0.0 0.00 0.00 0.00 87 1014.7
20260505075601 54 88 0.0 0.0 0.00 0.00 0.00 86 1014.7
20260505073601 54 88 0.0 0.0 0.00 0.00 0.00 86 1014.6
20260505072601 54 88 0.0 0.0 0.00 0.00 0.00 86 1014.6
20260505071602 54 88 0.0 0.0 0.00 0.00 0.00 86 1014.6
20260505070602 54 88 0.0 0.0 0.00 0.00 0.00 85 1014.5
20260505065601 54 88 0.0 0.0 0.00 0.00 0.00 84 1014.5
20260505064601 55 88 0.0 0.0 0.00 0.00 0.00 83 1014.5
20260505062601 55 88 0.0 0.0 0.00 0.00 0.00 82 1014.6
20260505061602 55 88 0.0 0.0 0.00 0.00 0.00 81 1014.7
20260505060602 55 88 0.0 0.0 0.00 0.00 0.00 81 1014.7
20260505055601 55 88 0.0 0.0 0.00 0.00 0.00 80 1014.8
20260505054601 56 88 0.0 0.0 0.00 0.00 0.00 81 1014.9
20260505053602 56 88 0.0 0.0 0.00 0.00 0.00 81 1014.9
20260505052601 56 88 0.0 0.0 0.00 0.00 0.00 81 1015.0
20260505051601 56 113 0.0 1.0 0.00 0.00 0.00 81 1014.9
20260505050601 56 97 0.0 0.0 0.00 0.00 0.00 82 1014.9
20260505041601 58 40 0.0 0.0 0.00 0.00 0.00 82 1015.0
20260505040602 58 40 0.0 0.0 0.00 0.00 0.00 82 1015.1
20260505035602 59 40 0.0 0.0 0.00 0.00 0.00 81 1015.1
20260505032602 60 40 0.0 0.0 0.00 0.00 0.00 77 1015.2
20260505031601 60 40 0.0 0.0 0.00 0.00 0.00 77 1015.1
20260505030602 61 40 0.0 0.0 0.00 0.00 0.00 77 1015.1
20260505024602 62 40 0.0 0.0 0.00 0.00 0.00 74 1015.0
20260505023601 62 40 0.0 0.0 0.00 0.00 0.00 73 1015.0
20260505022601 63 40 0.0 0.0 0.00 0.00 0.00 72 1015.0
20260505021601 63 40 0.0 0.0 0.00 0.00 0.00 71 1015.0
20260505013601 66 40 0.0 0.0 0.00 0.00 0.00 66 1014.6
20260505012601 66 40 0.0 0.0 0.00 0.00 0.00 66 1014.5
20260505011602 67 40 0.0 0.0 0.00 0.00 0.00 65 1014.5
20260505010602 68 29 0.0 0.0 0.00 0.00 0.00 64 1014.4
20260505005601 68 29 0.0 0.0 0.00 0.00 0.00 62 1014.3
20260505004602 69 29 0.0 0.0 0.00 0.00 0.00 60 1014.1
20260505003601 69 29 0.0 0.0 0.00 0.00 0.00 58 1014.0
20260505002601 70 29 0.0 0.0 0.00 0.00 0.00 55 1014.0
20260504235601 71 25 0.0 0.0 0.00 0.00 0.00 57 1013.8
20260504234601 71 345 0.0 0.0 0.00 0.00 0.00 56 1013.7
20260504233601 71 345 0.0 0.0 0.00 0.00 0.00 54 1013.6
20260504232601 71 345 0.0 0.0 0.00 0.00 0.00 53 1013.4
20260504230601 72 345 0.0 0.0 0.00 0.00 0.00 50 1013.5
20260504225602 72 345 0.0 0.0 0.00 0.00 0.00 49 1013.5
20260504224601 72 345 0.0 0.0 0.00 0.00 0.00 49 1013.5
20260504223601 73 345 0.0 0.0 0.00 0.00 0.00 47 1013.6
20260504220601 74 320 0.0 0.0 0.00 0.00 0.00 43 1013.6
20260504214602 75 23 0.0 0.0 0.00 0.00 0.00 41 1013.6
20260504213601 75 358 0.0 1.0 0.00 0.00 0.00 40 1013.5
20260504212602 76 340 0.0 1.0 0.00 0.00 0.00 38 1013.5
20260504211601 76 17 0.0 2.0 0.00 0.00 0.00 41 1013.5
20260504210602 75 73 0.0 2.0 0.00 0.00 0.00 41 1013.5
20260504205602 76 85 0.0 2.0 0.00 0.00 0.00 37 1013.6
20260504204601 76 16 0.0 1.0 0.00 0.00 0.00 37 1013.6
20260504203602 76 260 0.0 1.0 0.00 0.00 0.00 37 1013.7
20260504202602 76 144 0.0 2.0 0.00 0.00 0.00 38 1013.6
20260504201601 76 211 0.0 2.0 0.00 0.00 0.00 36 1013.7
20260504200602 76 100 0.0 3.0 0.00 0.00 0.00 40 1013.8
20260504195601 76 46 0.0 2.0 0.00 0.00 0.00 42 1014.1
20260504194601 76 97 1.0 3.0 0.00 0.00 0.00 40 1014.5
20260504193602 76 98 0.0 3.0 0.00 0.00 0.00 41 1014.6
20260504191602 75 145 0.0 1.0 0.00 0.00 0.00 40 1014.9
20260504190602 75 113 0.0 3.0 0.00 0.00 0.00 39 1015.0
20260504185602 75 77 0.0 2.0 0.00 0.00 0.00 40 1015.1
20260504184602 75 36 0.0 2.0 0.00 0.00 0.00 43 1015.2
20260504183601 74 178 0.0 1.0 0.00 0.00 0.00 39 1015.4
20260504181602 74 95 0.0 2.0 0.00 0.00 0.00 43 1015.6
20260504180602 73 105 0.0 2.0 0.00 0.00 0.00 44 1015.6
20260504175601 72 285 0.0 1.0 0.00 0.00 0.00 42 1015.8
20260504174601 72 335 0.0 1.0 0.00 0.00 0.00 41 1016.0
20260504173601 72 110 0.0 3.0 0.00 0.00 0.00 38 1016.2